Location: Peterborough
(44.3091°N, 78.3197°W)
Time: 05:29:10
(UTC-04:00)

Tiros 1 despin weight - All Passes

Search period start: 22 March 2023 00:00
Search period end: 01 April 2023 00:00
Orbit: 588 x 635 km, 48.2° (Epoch: 21 March)

Date Brightness Start Highest point End Pass type
(mag) Time Alt. Az. Time Alt. Az. Time Alt. Az.
22 Mar - 00:17:33 10° WSW 00:21:58 84° NNW 00:26:28 10° ENE night (unlit)
22 Mar - 01:59:20 10° WNW 02:03:40 51° N 02:08:05 10° ENE night (unlit)
22 Mar - 03:40:56 10° WNW 03:45:26 75° NNE 03:50:00 10° ESE visible
22 Mar - 05:22:32 10° WNW 05:26:39 35° SW 05:30:49 10° SSE visible
22 Mar - 22:50:47 10° SW 22:54:58 46° SSE 22:59:13 10° ENE night (unlit)
23 Mar - 00:31:55 10° W 00:36:18 63° NNW 00:40:45 10° ENE night (unlit)
23 Mar - 02:13:45 10° WNW 02:18:07 53° N 02:22:32 10° E night (unlit)
23 Mar - 03:55:14 10° WNW 03:59:43 78° SSW 04:04:17 10° ESE visible
23 Mar - 05:37:19 10° W 05:40:40 20° SW 05:44:02 10° S visible
23 Mar - 21:25:19 10° S 21:28:17 18° SE 21:31:17 10° E visible
23 Mar - 23:04:45 10° WSW 23:09:08 74° SSE 23:13:34 10° ENE night (unlit)
24 Mar - 00:46:22 10° W 00:50:42 53° N 00:55:07 10° ENE night (unlit)
24 Mar - 02:28:05 10° WNW 02:32:31 62° NNE 02:37:00 10° E night (unlit)
24 Mar - 04:09:33 10° WNW 04:13:55 50° SSW 04:18:19 10° SE visible
24 Mar - 05:53:15 10° WSW 05:54:34 11° SW 05:55:51 10° SSW visible
24 Mar - 21:38:23 10° SSW 21:42:15 31° SE 21:46:10 10° E visible
24 Mar - 23:19:00 10° WSW 23:23:24 77° NNW 23:27:51 10° ENE night (unlit)
25 Mar - 01:00:48 10° WNW 01:05:08 50° N 01:09:31 10° ENE night (unlit)
25 Mar - 02:42:22 10° WNW 02:46:51 81° NNE 02:51:23 10° ESE night (unlit)
25 Mar - 04:24:04 10° W 04:28:00 30° SW 04:31:57 10° SSE visible
25 Mar - 20:14:19 10° SSE 20:15:42 11° SE 20:17:06 10° ESE visible
25 Mar - 21:52:04 10° SW 21:56:20 52° SSE 22:00:38 10° ENE visible
25 Mar - 23:33:23 10° W 23:37:44 60° NNW 23:42:09 10° ENE night (unlit)
26 Mar - 01:15:11 10° WNW 01:19:32 54° N 01:23:57 10° E night (unlit)
26 Mar - 02:56:38 10° WNW 03:01:06 70° SSW 03:05:36 10° SE night (unlit)
26 Mar - 04:38:58 10° W 04:41:57 17° SW 04:44:57 10° S night (unlit)
26 Mar - 20:26:18 10° S 20:29:35 21° SE 20:32:53 10° E visible
26 Mar - 22:06:07 10° WSW 22:10:30 82° SSE 22:14:56 10° ENE visible
26 Mar - 23:47:49 10° W 23:52:07 52° N 23:56:29 10° ENE night (unlit)
27 Mar - 01:29:29 10° WNW 01:33:54 66° NNE 01:38:23 10° E night (unlit)
27 Mar - 03:10:59 10° WNW 03:15:14 43° SSW 03:19:31 10° SE night (unlit)
27 Mar - 20:39:33 10° SSW 20:43:33 36° SE 20:47:35 10° ENE visible
27 Mar - 22:20:23 10° WSW 22:24:46 71° NNW 22:29:12 10° ENE visible
28 Mar - 00:02:12 10° WNW 00:06:31 51° N 00:10:52 10° E night (unlit)
28 Mar - 01:43:44 10° WNW 01:48:12 88° NNE 01:52:42 10° ESE night (unlit)
28 Mar - 03:25:32 10° W 03:29:15 26° SW 03:33:00 10° SSE night (unlit)
28 Mar - 19:14:46 10° SSE 19:16:56 14° SE 19:19:06 10° ESE daylight
28 Mar - 20:53:20 10° SW 20:57:37 60° SSE 21:01:58 10° ENE visible
28 Mar - 22:34:46 10° W 22:39:06 56° N 22:43:28 10° ENE visible
29 Mar - 00:16:33 10° WNW 00:20:54 56° N 00:25:18 10° E night (unlit)
29 Mar - 01:58:00 10° WNW 02:02:23 62° SSW 02:06:50 10° SE night (unlit)
29 Mar - 03:40:40 10° W 03:43:09 15° SW 03:45:40 10° SSW night (unlit)
29 Mar - 19:27:16 10° SSW 19:30:49 24° SE 19:34:21 10° E daylight
29 Mar - 21:07:26 10° WSW 21:11:49 90° NNE 21:16:14 10° ENE visible
29 Mar - 22:49:11 10° W 22:53:29 50° N 22:57:47 10° ENE visible
30 Mar - 00:30:49 10° WNW 00:35:13 70° NNE 00:39:42 10° ESE night (unlit)
30 Mar - 02:12:22 10° WNW 02:16:29 38° SW 02:20:38 10° SSE night (unlit)
30 Mar - 19:40:41 10° SW 19:44:48 41° SE 19:48:55 10° ENE daylight
30 Mar - 21:21:43 10° W 21:26:05 66° NNW 21:30:28 10° ENE visible
30 Mar - 23:03:33 10° WNW 23:07:50 51° N 23:12:11 10° E visible
31 Mar - 00:45:03 10° WNW 00:49:29 84° SSW 00:53:57 10° ESE night (unlit)
31 Mar - 02:27:00 10° W 02:30:27 22° SW 02:33:56 10° S night (unlit)
31 Mar - 18:15:25 10° S 18:18:06 16° SE 18:20:46 10° E daylight
31 Mar - 19:54:32 10° SW 19:58:53 68° SSE 20:03:15 10° ENE daylight
31 Mar - 21:36:06 10° W 21:40:24 54° N 21:44:45 10° ENE visible
31 Mar - 23:17:51 10° WNW 23:22:12 59° NNE 23:26:35 10° E visible
